Date_and_time,latitude,longitude,wind_speed,RelWindDirFrom,WindDirFrom,air_pressure,air_temperature,relative_humidity,Temp,platform_speed_wrt_ground,air_pressure_at_mean_sea_level,platform_orientation
2018-11-02 23:50,50.6304533333333,-96.9807666666667,8.1,11.0,28,989.11,0.1,81,3.93,0.0,1017.00,90.0
2018-11-03 00:00,50.630455,-96.9807666666667,7.7,10.9,26,989.19,0.1,83,3.93,0.0,1017.08,0.0
2018-11-03 00:10,50.630455,-96.980765,8.1,10.4,25,989.24,0.2,83,3.93,0.0,1017.14,0.0
2018-11-03 00:20,50.6304566666667,-96.980765,7.7,10.1,23,989.26,0.2,84,3.92,0.0,1017.15,0.0
2018-11-03 00:30,50.630455,-96.980765,9.0,11.2,22,989.26,0.2,83,3.91,0.0,1017.15,0.0
2018-11-03 00:40,50.6304566666667,-96.980765,9.7,11.6,22,989.27,0.3,84,3.91,0.0,1017.17,0.0
2018-11-03 00:50,50.630455,-96.9807666666667,8.8,11.0,25,989.44,0.3,85,3.91,0.0,1017.33,0.0
2018-11-03 01:00,50.630455,-96.9807666666667,10.0,11.9,23,989.42,0.3,84,3.91,0.0,1017.31,0.0
2018-11-03 01:10,50.63045,-96.9807733333333,10.0,12.1,20,989.44,0.4,86,3.90,0.0,1017.32,0.0
2018-11-03 01:20,50.630455,-96.9807716666667,9.7,11.5,14,989.46,0.4,89,3.90,0.0,1017.34,0.0
2018-11-03 01:30,50.6304416666667,-96.98079,9.3,12.2,14,989.44,0.4,89,3.90,0.0,1017.32,0.0
2018-11-03 01:40,50.6304566666667,-96.9807816666667,10.7,13.1,24,989.44,0.5,87,3.90,0.0,1017.31,0.0
2018-11-03 01:50,50.6304583333333,-96.9807716666667,9.6,12.2,27,989.51,0.6,86,3.89,0.0,1017.38,0.0
2018-11-03 02:00,50.6304616666667,-96.98077,7.1,12.7,38,989.62,0.7,88,3.87,0.0,1017.49,360.0
2018-11-03 02:10,50.6304616666667,-96.98077,11.5,14.6,66,989.57,0.7,86,3.87,0.0,1017.44,360.0
2018-11-03 02:20,50.6304616666667,-96.9807716666667,12.4,14.9,66,989.55,0.6,85,3.86,0.0,1017.41,360.0
2018-11-03 02:30,50.63046,-96.98077,12.1,14.1,58,989.63,0.6,84,3.85,0.0,1017.50,360.0
2018-11-03 02:40,50.63046,-96.98077,12.4,15.1,62,989.73,0.6,83,3.85,0.0,1017.60,360.0
2018-11-03 02:50,50.6304433333333,-96.9807533333333,13.0,16.3,57,989.84,0.6,84,3.85,0.0,1017.71,360.0
2018-11-03 03:00,50.6304466666667,-96.980755,12.5,14.9,52,989.91,0.6,83,3.85,0.0,1017.78,131.7
2018-11-03 03:10,50.630455,-96.9807516666667,11.9,14.7,56,990.10,0.6,83,3.84,0.0,1017.98,131.7
2018-11-03 03:20,50.6304483333333,-96.9807433333333,11.9,14.4,55,990.08,0.6,83,3.84,0.0,1017.96,131.7
2018-11-03 03:30,50.6304566666667,-96.9807633333333,11.9,16.0,57,990.08,0.6,83,3.83,0.0,1017.95,131.7
2018-11-03 03:40,50.6304516666667,-96.98076,12.1,14.3,66,990.13,0.6,83,3.81,0.0,1017.99,131.7
2018-11-03 03:50,50.63045,-96.9807616666667,11.8,14.4,66,990.17,0.6,83,3.81,0.0,1018.03,131.7
2018-11-03 04:00,50.63045,-96.9807616666667,11.8,14.5,64,990.19,0.6,82,3.80,0.0,1018.05,90.0
2018-11-03 04:10,50.6304533333333,-96.9807616666667,10.7,12.8,57,990.23,0.6,81,3.80,0.0,1018.10,90.0
2018-11-03 04:20,50.630455,-96.98076,10.6,13.0,56,990.33,0.6,79,3.80,0.0,1018.21,90.0
2018-11-03 04:30,50.630455,-96.98076,10.2,12.2,55,990.43,0.6,79,3.79,0.0,1018.30,90.0
2018-11-03 04:40,50.6304566666667,-96.9807633333333,10.2,12.6,50,990.50,0.6,80,3.79,0.0,1018.37,90.0
2018-11-03 04:50,50.6304566666667,-96.980765,9.9,11.8,44,990.54,0.6,79,3.80,0.0,1018.42,90.0
2018-11-03 05:00,50.63043,-96.9807566666667,10.0,13.0,45,990.57,0.7,82,3.81,0.0,1018.45,360.0
2018-11-03 05:10,50.63045,-96.9807633333333,9.9,13.0,50,990.62,0.7,82,3.81,0.0,1018.49,360.0
2018-11-03 05:20,50.6304516666667,-96.98076,10.2,12.2,50,990.66,0.7,80,3.81,0.0,1018.54,360.0
2018-11-03 05:30,50.6304516666667,-96.9807633333333,9.1,12.1,51,990.90,0.7,79,3.81,0.0,1018.78,360.0
2018-11-03 05:40,50.6304516666667,-96.98076,8.5,11.3,55,990.92,0.7,79,3.81,0.0,1018.80,360.0
2018-11-03 05:50,50.6304516666667,-96.9807616666667,8.8,10.8,55,990.96,0.7,78,3.81,0.0,1018.84,360.0
2018-11-03 06:00,50.6304516666667,-96.9807616666667,8.6,10.4,54,990.98,0.7,77,3.81,0.0,1018.87,360.0
2018-11-03 06:10,50.6304516666667,-96.9807616666667,8.7,10.9,38,991.07,0.7,79,3.79,0.0,1018.95,360.0
2018-11-03 06:20,50.6304516666667,-96.98076,8.1,10.3,44,991.24,0.7,79,3.78,0.0,1019.13,360.0
2018-11-03 06:30,50.6304533333333,-96.98076,8.5,10.3,48,991.32,0.8,79,3.78,0.0,1019.21,360.0
2018-11-03 06:40,50.6304533333333,-96.9807616666667,8.7,10.6,41,991.36,0.8,79,3.77,0.0,1019.26,360.0
2018-11-03 06:50,50.6304533333333,-96.9807616666667,8.4,10.2,44,991.37,0.8,79,3.77,0.0,1019.26,360.0
2018-11-03 07:00,50.630455,-96.9807616666667,9.0,10.9,47,991.43,0.8,80,3.77,0.0,1019.31,90.0
2018-11-03 07:10,50.630455,-96.9807616666667,10.5,13.3,45,991.43,0.8,81,3.77,0.0,1019.32,90.0
2018-11-03 07:20,50.630455,-96.9807633333333,9.8,11.9,44,991.45,0.8,82,3.77,0.0,1019.34,90.0
2018-11-03 07:30,50.630485,-96.9807783333333,10.0,12.2,45,991.59,0.8,81,3.77,0.0,1019.48,90.0
2018-11-03 07:40,50.6304533333333,-96.9807733333333,11.7,14.9,45,991.56,0.8,82,3.77,0.0,1019.45,90.0
2018-11-03 07:50,50.6304466666667,-96.9807733333333,11.6,13.6,51,991.50,0.8,83,3.77,0.0,1019.39,90.0
2018-11-03 08:00,50.63045,-96.980775,11.1,13.2,49,991.52,0.7,81,3.77,0.0,1019.41,360.0
2018-11-03 08:10,50.63045,-96.9807716666667,11.3,13.1,46,991.58,0.8,79,3.76,0.0,1019.47,360.0
2018-11-03 08:20,50.63045,-96.98077,10.9,13.4,49,991.64,0.8,78,3.75,0.0,1019.53,360.0
2018-11-03 08:30,50.6304516666667,-96.98077,11.8,14.2,47,991.75,0.8,78,3.75,0.0,1019.64,360.0
2018-11-03 08:40,50.6304533333333,-96.9807733333333,12.0,14.7,44,991.82,0.8,78,3.75,0.0,1019.71,360.0
2018-11-03 08:50,50.6304533333333,-96.9807716666667,11.6,13.5,44,991.93,0.7,78,3.74,0.0,1019.83,360.0
2018-11-03 09:00,50.6304533333333,-96.98077,12.5,15.6,42,991.95,0.7,81,3.71,0.0,1019.85,270.0
2018-11-03 09:10,50.6304533333333,-96.98077,12.6,15.1,42,991.99,0.7,79,3.70,0.0,1019.89,270.0
2018-11-03 09:20,50.630455,-96.98077,12.6,14.7,41,992.01,0.7,78,3.70,0.0,1019.91,270.0
2018-11-03 09:30,50.630455,-96.9807716666667,12.1,14.2,41,992.12,0.7,81,3.70,0.0,1020.03,270.0
2018-11-03 09:40,50.630455,-96.98077,12.0,14.4,44,992.23,0.7,82,3.68,0.0,1020.14,270.0
2018-11-03 09:50,50.630455,-96.98077,12.0,14.4,42,992.32,0.6,84,3.68,0.0,1020.24,270.0
2018-11-03 10:00,50.630455,-96.98077,11.4,13.6,46,992.52,0.6,88,3.67,0.0,1020.45,270.0
2018-11-03 10:10,50.63044,-96.980725,10.6,12.8,45,992.68,0.6,91,3.66,0.0,1020.61,270.0
2018-11-03 10:20,50.630445,-96.9807416666667,10.4,12.5,48,992.77,0.5,90,3.65,0.0,1020.71,270.0
2018-11-03 10:30,50.63045,-96.98075,10.6,13.2,55,992.85,0.5,89,3.64,0.0,1020.79,270.0
2018-11-03 10:40,50.630465,-96.9808083333333,10.6,12.6,55,992.94,0.5,87,3.64,0.0,1020.88,270.0
2018-11-03 10:50,50.6304516666667,-96.98077,10.5,13.1,55,993.07,0.5,85,3.64,0.0,1021.02,270.0
2018-11-03 11:00,50.6304583333333,-96.9807666666667,10.8,12.7,49,993.17,0.4,86,3.64,0.0,1021.13,48.3
2018-11-03 11:10,50.63047,-96.9807683333333,11.4,13.9,50,993.27,0.4,87,3.64,0.0,1021.23,48.3
2018-11-03 11:20,50.6304583333333,-96.9807716666667,11.8,13.9,53,993.27,0.4,87,3.64,0.0,1021.22,48.3
2018-11-03 11:30,50.63046,-96.9807833333333,12.7,16.1,52,993.26,0.4,88,3.65,0.0,1021.22,48.3
2018-11-03 11:40,50.63045,-96.9807866666667,13.8,16.5,49,993.27,0.4,87,3.64,0.0,1021.23,48.3
2018-11-03 11:50,50.63045,-96.9807766666667,14.3,16.9,48,993.34,0.4,85,3.64,0.0,1021.30,48.3
2018-11-03 12:00,50.6304533333333,-96.980775,14.3,16.7,46,993.43,0.4,84,3.62,0.0,1021.40,270.0
2018-11-03 12:10,50.6304566666667,-96.9807716666667,14.3,17.1,48,993.60,0.4,82,3.60,0.0,1021.58,270.0
2018-11-03 12:20,50.6304566666667,-96.9807683333333,13.9,16.3,50,993.76,0.4,76,3.60,0.0,1021.74,270.0
2018-11-03 12:30,50.63046,-96.9807616666667,13.2,16.7,50,993.93,0.3,77,3.58,0.0,1021.92,270.0
2018-11-03 12:40,50.630465,-96.9807683333333,12.9,16.1,52,994.07,0.3,75,3.57,0.0,1022.07,270.0
2018-11-03 12:50,50.63046,-96.9807733333333,12.6,15.5,52,994.22,0.3,73,3.56,0.0,1022.23,270.0
2018-11-03 13:00,50.63046,-96.980775,13.0,16.1,57,994.37,0.3,72,3.55,0.0,1022.39,347.4
2018-11-03 13:10,50.63046,-96.980775,12.1,14.4,58,994.51,0.2,73,3.55,0.0,1022.53,347.4
2018-11-03 13:20,50.63046,-96.980775,11.8,14.7,58,994.56,0.2,74,3.54,0.0,1022.59,347.4
2018-11-03 13:30,50.63046,-96.980775,12.2,15.0,53,994.67,0.2,78,3.54,0.0,1022.69,347.4
2018-11-03 13:40,50.6304583333333,-96.9807733333333,12.4,15.2,52,994.85,0.1,76,3.54,0.0,1022.88,347.4
2018-11-03 13:50,50.6304583333333,-96.9807733333333,12.3,15.4,44,995.02,0.2,76,3.54,0.0,1023.06,347.4
2018-11-03 14:00,50.6304583333333,-96.9807733333333,11.9,14.5,55,995.08,0.1,75,3.55,0.0,1023.12,270.0
2018-11-03 14:10,50.6304583333333,-96.9807733333333,11.6,13.7,59,995.12,0.1,75,3.55,0.0,1023.17,270.0
2018-11-03 14:20,50.630465,-96.9807883333333,10.8,13.6,47,995.28,0.1,75,3.54,0.0,1023.33,270.0
2018-11-03 14:30,50.6304566666667,-96.9807733333333,10.9,13.5,53,995.39,0.1,75,3.53,0.0,1023.44,270.0
2018-11-03 14:40,50.6304533333333,-96.9807733333333,10.1,13.3,53,995.50,0.1,75,3.52,0.0,1023.56,270.0
2018-11-03 14:50,50.63045,-96.9807683333333,10.4,13.0,46,995.61,0.2,75,3.52,0.0,1023.67,270.0
2018-11-03 15:00,50.6304666666667,-96.9807716666667,10.4,13.8,51,995.69,0.1,74,3.52,0.0,1023.76,360.0
2018-11-03 15:10,50.630455,-96.9807733333333,9.8,11.8,53,995.82,0.1,73,3.51,0.0,1023.89,360.0
2018-11-03 15:20,50.6304533333333,-96.980765,8.6,10.7,54,995.95,0.2,71,3.51,0.0,1024.02,360.0
2018-11-03 15:30,50.6304533333333,-96.9807683333333,8.4,11.2,49,995.96,0.2,69,3.51,0.0,1024.03,360.0
2018-11-03 15:40,50.630455,-96.9807666666667,8.5,11.1,50,996.04,0.2,68,3.51,0.0,1024.11,360.0
2018-11-03 15:50,50.6304533333333,-96.9807616666667,8.4,10.4,39,996.12,0.2,67,3.51,0.0,1024.20,360.0
2018-11-03 16:00,50.6304533333333,-96.98076,9.9,13.1,48,996.08,0.3,67,3.50,0.0,1024.16,125.3
2018-11-03 16:10,50.630455,-96.9807616666667,11.2,13.6,50,996.05,0.5,67,3.50,0.0,1024.11,125.3
2018-11-03 16:20,50.630455,-96.9807633333333,10.8,12.7,43,996.17,0.5,67,3.50,0.0,1024.24,125.3
2018-11-03 16:30,50.630455,-96.9807633333333,11.0,13.2,38,996.27,0.5,67,3.50,0.0,1024.34,125.3
2018-11-03 16:40,50.630455,-96.9807633333333,9.2,11.5,31,996.46,0.5,66,3.50,0.0,1024.54,125.3
2018-11-03 16:50,50.630455,-96.980765,8.8,11.0,31,996.53,0.3,66,3.51,0.0,1024.61,125.3
2018-11-03 17:00,50.630465,-96.98077,8.6,11.7,40,996.60,0.3,66,3.51,0.0,1024.68,14.5
2018-11-03 17:10,50.6304616666667,-96.9807666666667,9.1,13.0,46,996.67,0.3,67,3.52,0.0,1024.76,14.5
2018-11-03 17:20,50.6304616666667,-96.9807683333333,7.0,11.3,37,996.77,0.2,66,3.52,0.0,1024.86,14.5
2018-11-03 17:30,50.6304616666667,-96.9807683333333,7.5,9.5,43,996.73,0.3,66,3.53,0.0,1024.82,14.5
2018-11-03 17:40,50.6304633333333,-96.9807683333333,6.9,9.6,32,996.82,0.2,66,3.53,0.0,1024.92,14.5
2018-11-03 17:50,50.6304616666667,-96.980765,5.9,8.9,44,996.86,0.2,65,3.53,0.0,1024.95,14.5
2018-11-03 18:00,50.6304616666667,-96.980765,7.5,12.6,39,996.80,0.3,67,3.55,0.0,1024.87,131.7
2018-11-03 18:10,50.63046,-96.980765,7.9,11.2,21,996.82,0.2,66,3.55,0.0,1024.90,131.7
2018-11-03 18:20,50.630465,-96.9807666666667,8.1,10.8,36,996.86,0.1,65,3.56,0.0,1024.95,131.7
2018-11-03 18:30,50.6304466666667,-96.9807416666667,9.0,12.6,35,996.84,0.2,67,3.56,0.0,1024.92,131.7
2018-11-03 18:40,50.6304683333333,-96.9807833333333,9.0,11.6,30,996.82,0.1,65,3.56,0.0,1024.91,131.7
2018-11-03 18:50,50.63046,-96.980765,8.3,10.2,25,996.83,0.0,64,3.56,0.0,1024.92,131.7
2018-11-03 19:00,50.6304583333333,-96.9807666666667,7.5,9.6,27,996.90,0.0,65,3.56,0.0,1025.01,347.4
2018-11-03 19:10,50.6304583333333,-96.9807666666667,6.5,9.2,37,996.84,0.0,65,3.57,0.0,1024.94,347.4
2018-11-03 19:20,50.6304583333333,-96.9807666666667,6.6,10.5,27,996.78,0.0,65,3.58,0.0,1024.88,347.4
2018-11-03 19:30,50.6304516666667,-96.98077,6.7,9.2,22,996.77,-0.0,65,3.59,0.0,1024.88,347.4
2018-11-03 19:40,50.630455,-96.98077,6.0,8.7,13,996.75,-0.0,65,3.59,0.0,1024.86,347.4
2018-11-03 19:50,50.630455,-96.9807716666667,6.1,8.7,9,996.72,-0.1,65,3.59,0.0,1024.82,347.4
2018-11-03 20:00,50.630455,-96.9807716666667,6.4,9.2,19,996.70,-0.1,64,3.60,0.0,1024.81,360.0
2018-11-03 20:10,50.6304533333333,-96.9807716666667,7.2,9.6,21,996.66,-0.1,65,3.60,0.0,1024.77,360.0
2018-11-03 20:20,50.6304483333333,-96.9807716666667,7.6,10.3,22,996.59,-0.1,66,3.61,0.0,1024.70,360.0
2018-11-03 20:30,50.63045,-96.9807633333333,8.4,11.2,18,996.50,-0.1,65,3.61,0.0,1024.62,360.0
2018-11-03 20:40,50.6304516666667,-96.980765,7.1,10.3,15,996.52,-0.2,65,3.61,0.0,1024.63,360.0
2018-11-03 20:50,50.63045,-96.9807616666667,6.5,8.3,25,996.55,-0.1,65,3.61,0.0,1024.66,360.0
2018-11-03 21:00,50.6304533333333,-96.9807633333333,4.6,7.4,23,996.58,-0.2,63,3.61,0.0,1024.70,360.0
2018-11-03 21:10,50.6304516666667,-96.98076,4.9,8.1,13,996.56,-0.2,64,3.62,0.0,1024.67,360.0
2018-11-03 21:20,50.6304516666667,-96.9807616666667,4.2,6.2,4,996.56,-0.2,63,3.62,0.0,1024.68,360.0
2018-11-03 21:30,50.6304516666667,-96.9807616666667,6.4,8.4,15,996.58,-0.1,65,3.62,0.0,1024.70,360.0
2018-11-03 21:40,50.6304533333333,-96.98078,5.7,8.1,28,996.51,-0.1,65,3.62,0.0,1024.63,360.0
2018-11-03 21:50,50.6304516666667,-96.9807716666667,5.5,7.4,28,996.53,-0.1,64,3.62,0.0,1024.64,360.0
2018-11-03 22:00,50.6304516666667,-96.9807666666667,5.4,7.1,18,996.64,-0.1,65,3.62,0.0,1024.76,142.0
2018-11-03 22:10,50.6304483333333,-96.9807633333333,4.8,6.9,11,996.68,-0.1,64,3.62,0.0,1024.80,142.0
2018-11-03 22:20,50.6304466666667,-96.9807666666667,5.0,8.2,23,996.69,-0.1,64,3.61,0.0,1024.82,142.0
2018-11-03 22:30,50.6304466666667,-96.9807683333333,6.7,8.5,23,996.59,-0.1,64,3.61,0.0,1024.71,142.0
2018-11-03 22:40,50.6304483333333,-96.9807683333333,6.6,8.3,34,996.55,-0.1,65,3.60,0.0,1024.66,142.0
2018-11-03 22:50,50.6304483333333,-96.98077,6.1,7.7,35,996.56,-0.1,64,3.60,0.0,1024.68,142.0
2018-11-03 23:00,50.63045,-96.9807683333333,6.5,8.9,38,996.60,-0.0,65,3.59,0.0,1024.72,90.0
2018-11-03 23:10,50.6304516666667,-96.98077,6.2,8.8,32,996.67,0.0,64,3.59,0.0,1024.80,90.0
2018-11-03 23:20,50.6304516666667,-96.9807716666667,5.6,7.9,31,996.75,0.0,64,3.57,0.0,1024.87,90.0
2018-11-03 23:30,50.6304533333333,-96.9807716666667,5.0,7.4,38,996.75,0.0,63,3.55,0.0,1024.87,90.0
